AO-07 1 07530U 74089B 14142.83781331 -.00000048 00000-0 -29003-4 0 9700 2 07530 101.4691 125.5061 0011799 347.0262 076.0085 12.53605190808341 FO-29 1 24278U 96046B 14142.78175022 -.00000014 00000-0 21897-4 0 3803 2 24278 098.5125 160.1439 0350355 003.7604 044.0664 13.53024116877237 SO-33 1 25509U 98061B 14141.82152259 .00000333 00000-0 51144-4 0 7558 2 25509 031.4346 309.7741 0349897 243.3791 266.4863 14.29538432813372 RS-22 1 27939U 03042A 14142.55539623 .00000787 00000-0 15452-3 0 5098 2 27939 097.8096 317.9783 0013122 184.4493 175.6592 14.65182246568970 VO-52 1 28650U 05017B 14142.08497348 .00001285 00000-0 15439-3 0 7437 2 28650 097.5593 148.3587 0023877 241.3682 118.5132 14.85427867489352 HO-68 1 36122U 09072B 14142.72392975 -.00000043 00000-0 00000 0 0 6093 2 36122 100.2494 195.3750 0007078 295.7528 064.2862 13.16315586213087 AO-73 1 39444U 13066AE 14141.75787103 .00002069 00000-0 28351-3 0 1484 2 39444 097.7726 213.3078 0061084 330.3430 029.4319 14.78245766 25569 UO-11 1 14781U 84021B 14142.16552245 .00000590 00000-0 81692-4 0 4975 2 14781 097.8547 202.7968 0007373 261.4732 098.5646 14.81576511624113 AO-16 1 20439U 90005D 14142.41124749 .00000093 00000-0 50253-4 0 280 2 20439 098.5061 080.2337 0010062 230.7220 276.7476 14.32352474270796 LO-19 1 20442U 90005G 14142.37218124 .00000084 00000-0 46703-4 0 9655 2 20442 098.4768 080.9285 0011191 219.7981 140.2383 14.32555021270983 AO-27 1 22825U 93061C 14141.80731519 .00000062 00000-0 41385-4 0 6713 2 22825 098.6602 088.0310 0008601 023.5709 037.3607 14.29716216 77013 IO-26 1 22826U 93061D 14142.07623391 .00000083 00000-0 49314-4 0 4285 2 22826 098.6545 088.5222 0008952 015.2823 344.8628 14.30016121 77188 GO-32 1 25397U 98043D 14141.80113722 .00000036 00000-0 34364-4 0 3510 2 25397 098.4660 100.7768 0002011 065.0499 353.6025 14.23442236824118 NO-44 1 26931U 01043C 14142.37878325 .00000054 00000-0 52896-4 0 6073 2 26931 067.0519 105.0069 0006164 282.8227 077.2185 14.30112715659915 SO-50 1 27607U 02058C 14141.95980570 .00000495 00000-0 95396-4 0 3988 2 27607 064.5570 312.2930 0044381 019.1237 341.1518 14.73748758613618 CO-55 1 27844U 03031E 14142.30076544 .00000244 00000-0 13165-3 0 9295 2 27844 098.6975 151.4463 0009278 357.8948 069.8204 14.21498034564904 CO-57 1 27848U 03031J 14142.59193243 .00000202 00000-0 11302-3 0 8706 2 27848 098.7068 151.4302 0009280 003.7271 117.2354 14.21186275564863 AO-51 1 28375U 04025K 14142.10520863 .00000176 00000-0 64861-4 0 8456 2 28375 098.2485 089.9051 0084285 071.7140 289.3198 14.41378178520159 CP3 1 31129U 07012N 14142.51685792 .00001019 00000-0 23297-3 0 7525 2 31129 097.9313 121.8040 0100087 091.1176 025.0481 14.54645818376302 CO-65 1 32785U 08021C 14142.16017245 .00001158 00000-0 14092-3 0 9550 2 32785 097.7019 194.3093 0012320 272.8384 150.9459 14.85244098328169 PRISM 1 33493U 09002B 14142.75107204 .00004391 00000-0 46813-3 0 9397 2 33493 098.2480 317.3267 0018122 162.8080 197.3721 14.89308317288397 SOHLA-1 1 33496U 09002E 14142.82282022 .00000294 00000-0 56433-4 0 3561 2 33496 098.1670 263.6965 0005313 332.2038 145.8201 14.70794469285780 TISAT-1 1 36799U 10035E 14142.75895929 .00003055 00000-0 35889-3 0 2003 2 36799 098.0161 234.5645 0014973 049.4871 310.7609 14.85579262208945 STUDSAT 1 36801U 10035G 14141.05191122 .00008255 00000-0 73487-3 0 8260 2 36801 098.0343 240.3629 0008922 031.7922 021.1992 14.96294395209072 ALMASAT-1 1 38078U 12006B 14142.75238819 .00034677 00000-0 75343-3 0 320 2 38078 069.4675 120.5636 0598721 065.6063 355.1768 14.48154805117954 XATCOBEO 1 38082U 12006F 14142.79078565 .00272181 21641-4 18444-2 0 2444 2 38082 069.4429 027.5167 0234833 014.4229 097.5637 15.45864164120453 CUBEBUG-1 1 39153U 13018D 14142.76169070 .00001809 00000-0 25924-3 0 1414 2 39153 098.0411 223.1119 0019212 074.4472 285.8853 14.77670820 57809 ESTCUBE-1 1 39161U 13021C 14142.76476385 .00001403 00000-0 24218-3 0 1221 2 39161 098.0970 223.8475 0011484 113.4475 246.7908 14.69960135 55863 MET-2/21 1 22782U 93055A 14142.77594735 .00000023 00000-0 77089-5 0 613 2 22782 082.5488 193.4664 0021245 339.3326 158.2659 13.83736208 46607 OKEAN-4 1 23317U 94066A 14142.82153837 .00000792 00000-0 88599-4 0 5391 2 23317 082.5393 091.7121 0021013 178.5019 242.5383 14.85493612 59348 NOAA-14 1 23455U 94089A 14142.31109716 -.00000031 00000-0 67616-5 0 7588 2 23455 098.7787 226.2057 0010627 112.9860 287.3317 14.13973186 299 NOAA-15 1 25338U 98030A 14142.44201936 .00000164 00000-0 88415-4 0 1917 2 25338 098.7507 136.3530 0010074 217.0528 297.8754 14.25420152833177 RESURS 1 25394U 98043A 14141.81120738 -.00000014 00000-0 11936-4 0 6603 2 25394 098.4100 107.2964 0001281 037.7698 021.3286 14.24394692824569 FENGYUN1 1 25730U 99025A 14142.48467626 .00000509 00000-0 30215-3 0 1515 2 25730 098.9107 103.7381 0025498 179.3939 324.7727 14.11873528773891 OKEAN-0 1 25860U 99039A 14142.80665211 .00000455 00000-0 74797-4 0 2560 2 25860 098.0400 106.8260 0001981 114.3098 304.6100 14.75255150798410 NOAA-16 1 26536U 00055A 14142.24456815 .00000070 00000-0 61640-4 0 6815 2 26536 098.9924 202.4927 0009620 255.9468 145.9256 14.13042438704459 NOAA-17 1 27453U 02032A 14142.41941687 .00000061 00000-0 43760-4 0 5852 2 27453 098.3128 143.4897 0010584 246.2233 113.7838 14.24746569619016 NOAA-18 1 28654U 05018A 14142.45956977 .00000051 00000-0 53362-4 0 780 2 28654 099.1456 121.4458 0013705 340.6178 128.8450 14.12018128463932 NOAA-19 1 33591U 09005A 14142.48327124 .00000249 00000-0 16114-3 0 2408 2 33591 098.9430 087.5997 0013977 187.4271 282.8894 14.11713092272368 HUBBLE 1 20580U 90037B 14142.47770832 .00001840 00000-0 11336-3 0 186 2 20580 028.4692 206.1367 0003235 015.9477 111.9420 15.05386275120844 ISS 1 25544U 98067A 14142.72054242 .00015094 00000-0 26738-3 0 3417 2 25544 051.6496 225.8355 0003409 028.5772 107.4428 15.50479804887372 CO-58 1 28895U 05043F 14142.54297696 .00000657 00000-0 14002-3 0 7732 2 28895 097.8368 345.7415 0018873 092.8702 267.4661 14.61864573456506 FALCON 1 30776U 07006E 14141.78466969 .00006850 00000-0 35029-3 0 8712 2 30776 035.4291 277.1842 0001212 053.8021 100.1028 15.16054022396720 MAST 1 31126U 07012K 14142.83370382 .00000625 00000-0 14606-3 0 500 2 31126 097.9118 125.0521 0093498 073.8900 355.3566 14.55252291376708 CAPE1 1 31130U 07012P 14142.41270424 .00000964 00000-0 22193-3 0 567 2 31130 097.9326 121.2751 0100615 092.7156 268.5563 14.54402918376063 COMPASS 1 32787U 08021E 14142.13971870 .00002873 00000-0 31999-3 0 9350 2 32787 097.7044 196.4143 0012369 264.8189 095.1616 14.87801497328311 AAUSAT2 1 32788U 08021F 14142.15620794 .00003034 00000-0 33195-3 0 9225 2 32788 097.7055 197.3863 0011789 262.9351 097.0525 14.88502257328377 DO-64 1 32789U 08021G 14142.14981943 .00004177 00000-0 40507-3 0 9618 2 32789 097.7235 203.6333 0011063 247.0346 173.7757 14.93167472328612 CO-66 1 32791U 08021J 14142.14024418 .00002356 00000-0 27199-3 0 9187 2 32791 097.7039 195.2338 0012904 268.9183 091.0555 14.86486223328184 RS-30 1 32953U 08025A 14142.71636748 .00000010 00000-0 00000 0 0 9429 2 32953 082.5042 217.0443 0018638 208.0095 151.9992 12.43047246272095 METEOR-M 1 35865U 09049A 14142.75249599 .00000021 00000-0 28658-4 0 5566 2 35865 098.5508 190.9331 0002667 149.5398 210.5932 14.21922492242725 RS-38 1 35869U 09049E 14142.74961201 .00000033 00000-0 34175-4 0 4800 2 35869 098.5453 190.7388 0005320 157.5965 338.0270 14.22209239242758 JUGNU 1 37839U 11058B 14142.11493225 .00000413 00000-0 79125-4 0 6212 2 37839 019.9622 052.9502 0019126 057.7566 073.0113 14.12306849134864 SRMSAT 1 37841U 11058D 14142.22329142 .00000387 00000-0 68550-4 0 6268 2 37841 019.9727 071.0933 0011870 359.9624 165.2775 14.10349589134698 RAX-2 1 37853U 11061D 14142.00855035 .00006566 00000-0 45362-3 0 8101 2 37853 101.7162 159.1733 0217952 132.4418 283.2606 14.89099479138766 AUBIESAT 1 37854U 11061E 14142.01818801 .00006982 00000-0 46753-3 0 7929 2 37854 101.7201 160.9561 0215909 129.7323 286.1569 14.90400790138814 HRBE 1 37855U 11061F 14142.67896117 .00007650 00000-0 51686-3 0 8002 2 37855 101.7200 161.3362 0218058 129.0379 352.3459 14.89729968138880 RS-39 1 38051U 11062C 14142.81433896 .00063485 00000-0 83239-3 0 5621 2 38051 051.6280 350.2842 0004824 117.3040 352.0816 15.57940632130156 E-STAR 1 38079U 12006C 14142.82787965 .00130527 65355-5 16099-2 0 8599 2 38079 069.4552 058.3400 0386866 031.6716 070.7355 15.03987417119644 GOLIAT 1 38085U 12006J 14142.85081451 .00122403 60223-5 15897-2 0 619 2 38085 069.4562 064.7705 0409504 034.8833 066.4837 14.98309749119478 HORYU-2 1 38340U 12025D 14142.87835293 .00001739 00000-0 28209-3 0 8594 2 38340 098.2613 099.6541 0011190 257.5627 102.4322 14.72478164108073 RS-40 1 38735U 12041C 14141.55289793 .00000024 00000-0 10000-3 0 5742 2 38735 082.4742 304.1501 0016342 315.2055 044.7705 12.42559373 82273 PROITERES 1 38756U 12047B 14142.81944839 .00000498 00000-0 82032-4 0 8530 2 38756 098.2288 230.6979 0013870 105.3979 254.8763 14.74941059 91444 BEESAT-3 1 39134U 13015E 14142.20543081 .00006165 00000-0 44052-3 0 5920 2 39134 064.8748 220.7726 0025534 312.3724 047.5219 15.05083397 59751 BEESAT-2 1 39136U 13015G 14141.72730547 .00005416 00000-0 39463-3 0 5774 2 39136 064.8748 222.6817 0025737 312.2782 047.6087 15.04493703 59673 LO-75 1 39382U 13064C 14142.64162974 .00067025 00000-0 15154-2 0 2407 2 39382 040.4968 248.3964 0018303 051.4301 308.7291 15.42034277 28110 ZACUBE-1 1 39417U 13066B 14142.85268899 .00001283 00000-0 17929-3 0 3031 2 39417 097.7758 214.3433 0061600 326.7508 032.9819 14.78052138 26956 TRITON-1 1 39427U 13066M 14142.71710403 .00001257 00000-0 21866-3 0 1573 2 39427 097.7644 210.5474 0118016 332.1571 027.3349 14.65353632 26662 DELFIN3XT 1 39428U 13066N 14142.26157905 .00002042 00000-0 36095-3 0 1603 2 39428 097.7614 209.4425 0128032 335.3166 024.1917 14.63231837 26540 GOMX-1 1 39430U 13066Q 14142.75659857 .00001108 00000-0 21899-3 0 4929 2 39430 097.7595 208.1642 0156544 338.0816 021.3691 14.56792337 26513 MO-76 1 39436U 13066W 14142.71424904 .00013706 00000-0 14265-2 0 2130 2 39436 097.7798 216.7284 0025100 335.9204 024.0453 14.89722761 27080 LO-74 1 39440U 13066AA 14141.84342511 .00001524 00000-0 23233-3 0 1546 2 39440 097.7703 211.9223 0083574 331.1520 028.5032 14.73004887 26704 PUCPSAT-1 1 39442U 13066AC 14141.90697650 .00002691 00000-0 31101-3 0 1529 2 39442 097.7797 215.6478 0034173 333.8532 026.0911 14.85996705 25727 LITSAT-1 1 39568U 98067EM 14141.68969853 .08718479 12288-4 16397-2 0 2019 2 39568 051.6199 218.3520 0010228 331.9458 028.2795 16.31113353 12936 LITUANSAT 1 39569U 98067EN 14142.66187034 .00151125 00000-0 10761-2 0 2589 2 39569 051.6444 219.4594 0007993 327.9387 154.8169 15.72814122 13000 SHINAISAT 1 39572U 14009A 14142.19034501 .00041934 00000-0 38395-3 0 1168 2 39572 065.0115 133.0662 0015968 290.1611 069.7820 15.67393572 13033 OPUSAT 1 39575U 14009D 14142.21170158 .00138316 00000-0 69843-3 0 1380 2 39575 065.0095 130.0434 0014568 311.7957 048.1955 15.80820900 13096 TEIKYOSAT 1 39576U 14009E 14142.21311870 .00053501 00000-0 43310-3 0 1214 2 39576 065.0120 132.1790 0014580 308.4328 051.5516 15.70343313 13057 IFT-1 1 39577U 14009F 14142.89134303 .00092370 00000-0 58328-3 0 1282 2 39577 065.0117 128.5697 0013991 310.9796 049.0130 15.75999168 13189 CO-77 1 39578U 14009G 14137.79435183 .04930316 75580-5 46746-3 0 1855 2 39578 064.9698 141.4483 0010610 288.0688 072.6747 16.37966192 12465 STARS-II 1 39579U 14009H 14116.06110564 .20186783 77451-5 52661-3 0 1329 2 39579 064.9886 219.0071 0013010 293.8065 069.6132 16.44611049 9028 KICKSAT 1 39685U 14022F 14133.79926973 .10230793 12532-4 76634-3 0 839 2 39685 051.6478 260.9431 0011364 321.6786 038.9487 16.39478651 3997 /EX
